Regional Weather Roundup
Issued by NWS Raleigh/Durham, NC

Home | Current Version | Previous Version | Text Only | Print | Product List | Glossary On
Versions: 1 2 3 4 5 6 7 8 9 10 11 12 13 14 15 16 17 18 19 20 21 22 23 24 25 26 27 28 29 30 31 32 33 34 35 36 37 38 39 40 41 42 43 44 45 46 47 48
000
ASUS42 KRAH 270610
RWRRAH
NORTH CAROLINA WEATHER ROUNDUP
NATIONAL WEATHER SERVICE RALEIGH NC
100 AM EST FRI FEB 27 2015

NOTE: "FAIR" INDICATES FEW OR NO CLOUDS BELOW 12,000 FEET WITH NO
SIGNIFICANT WEATHER AND/OR OBSTRUCTIONS TO VISIBILITY.

NCZ001-053-055-056-065-067-270700-
WESTERN NORTH CAROLINA

CITY           SKY/WX    TMP DP  RH WIND       PRES   REMARKS
ASHEVILLE      CLEAR     29  22  75 NW8       30.13R WCI  21
JEFFERSON      PTCLDY    27  18  69 NW12G23   30.04S WCI  17
MORGANTON      CLEAR     26  26  99 CALM      30.19R
HICKORY        PTCLDY    31  26  82 W3        30.14R
RUTHERFORDTON  CLOUDY    32  32 100 CALM      30.16R FOG
MOUNT AIRY     CLEAR     30  28  90 CALM      30.15R FOG
BOONE          CLEAR     26  22  84 NW14      30.05S WCI  14
$$

NCZ021-022-025-041-071-084-088-270700-
CENTRAL NORTH CAROLINA

CITY           SKY/WX    TMP DP  RH WIND       PRES   REMARKS
CHARLOTTE      CLOUDY    32  28  85 CALM      30.17R
GREENSBORO     CLEAR     29  27  92 CALM      30.15R FOG
WINSTON-SALEM  CLOUDY    32  29  88 CALM      30.16R FOG
RALEIGH-DURHAM MOCLDY    28  25  88 CALM      30.17S FOG
FORT BRAGG     NOT AVBL
FAYETTEVILLE   MOCLDY    34  29  82 NW3       30.17S
BURLINGTON     MOCLDY    29  26  89 CALM      30.15S FOG
LAURINBURG     MOCLDY    31  29  92 N3        30.18S FOG
$$

NCZ011-015-027-028-043-044-047-080-103-270700-
NORTHEASTERN NORTH CAROLINA

CITY           SKY/WX    TMP DP  RH WIND       PRES   REMARKS
ROCKY MT-WILSO FOG       27  27 100 CALM      30.18S VSB 1/4
GREENVILLE     MOCLDY    32  32 100 CALM      30.19S
WASHINGTON     CLOUDY    33  31  94 NW3       30.17S
ELIZABETH CITY NOT AVBL
MANTEO         CLOUDY    34  28  80 N9        30.15R WCI  26
CAPE HATTERAS  CLOUDY    34  31  88 VRB7      30.11R WCI  28
$$

NCZ078-087-090-091-093-098-101-270700-
SOUTHEASTERN NORTH CAROLINA

CITY           SKY/WX    TMP DP  RH WIND       PRES   REMARKS
LUMBERTON      CLOUDY    35  30  82 N3        30.16F
GOLDSBORO      NOT AVBL
KINSTON        MOCLDY    34  32  93 N5        30.18S WCI  30
KENANSVILLE    CLOUDY    34  32  95 CALM      30.18R
NEW BERN       CLOUDY    34  30  85 N8        30.17S WCI  27
CHERRY POINT   CLOUDY    35  29  78 N13       30.17R WCI  26
BEAUFORT       CLOUDY    34  31  88 N12       30.15R WCI  25
JACKSONVILLE   CLOUDY    35  30  82 N8        30.16R WCI  29
WILMINGTON     CLOUDY    36  32  85 N3        30.16S
$$



USA.gov is the U.S. government's official web portal to all federal, state and local government web resources and services.